Tracking 19192 objects as of 21-Jun-2018
HD Live streaming from Space Station
objects crossing your sky now

FENGYUN 1C DEB

Track FENGYUN 1C DEB now!
10-day predictions


NORAD ID: 32105
Int'l Code: 1999-025CQX
Perigee: 827.2 km
Apogee: 1,481.3 km
Inclination: 103.5 °
Period: 108.3 minutes
Semi major axis: 7525 km
RCS: 0.0182 m2 (small)
Launch date: May 10, 1999
Source: People's Republic of China (PRC)
Launch site: Taiyaun Space Center, China (TSC)

Note: This is SATELLITE DEBRIS
aabbcc
Your satellite tracking list
Your tracking list is empty




NASA's NSSDC Master Catalog

Two Line Element Set (TLE):
1 32105U 99025CQX 18170.71555724 +.00000679 +00000-0 +95402-3 0  9994
2 32105 103.4546 357.2635 0434620 297.5025 058.2546 13.29911587232920
Source of the keplerian elements: AFSPC